This is the latest recevied weather packets stored in our database for station/object HK6RM-20. If no packets are shown the sender has not sent any weather packets the latest 1 day(s).
| Time | Temp. | Humidity | Pressure | Rain* | Wind** | Luminosity | Snow |
|---|---|---|---|---|---|---|---|
| 1778093734 | 30.56° C | 51% | 1008 hPa | 0 mm | - | - | - |
| 1778092169 | 30° C | 56% | 1009 hPa | 0 mm | - | - | - |
| 1778090608 | 30° C | 54% | 1009 hPa | 0 mm | - | - | - |
| 1778086704 | 29.44° C | 55% | 1010 hPa | 0 mm | - | - | - |
| 1778082796 | 28.89° C | 64% | 1012 hPa | 0 mm | - | - | - |
| 1778080453 | 26.67° C | 71% | 1014 hPa | 0 mm | - | - | - |
| 1778077328 | 24.44° C | 86% | 1016 hPa | 0 mm | - | - | - |
| 1778075767 | 24.44° C | 81% | 1015 hPa | 0 mm | - | - | - |
| 1778074206 | 22.22° C | 90% | 1015 hPa | 0 mm | - | - | - |
| 1778068740 | 21.67° C | 94% | 1016 hPa | 0 mm | - | - | - |
| 1778067959 | 22.22° C | 94% | 1016 hPa | 0 mm | - | - | - |
| 1778067178 | 18.89° C | 95% | 1016 hPa | 0 mm | - | - | - |
| 1778066398 | 19.44° C | 95% | 1015 hPa | 0 mm | - | - | - |
| 1778065617 | 20° C | 95% | 1015 hPa | 0 mm | - | - | - |
| 1778064055 | 21.11° C | 95% | 1015 hPa | 0 mm | - | - | - |
| 1778063275 | 21.67° C | 95% | 1015 hPa | 0 mm | - | - | - |
| 1778060932 | 18.89° C | 95% | 1015 hPa | 0 mm | - | - | - |
| 1778060151 | 19.44° C | 95% | 1015 hPa | 0 mm | - | - | - |
| 1778058589 | 20.56° C | 95% | 1015 hPa | 0 mm | - | - | - |
| 1778057807 | 21.11° C | 95% | 1014 hPa | 0 mm | - | - | - |
| 1778057027 | 21.67° C | 95% | 1015 hPa | 0 mm | - | - | - |
| 1778056246 | 22.22° C | 95% | 1015 hPa | 0 mm | - | - | - |
| 1778055466 | 17.78° C | 93% | 1015 hPa | 0 mm | - | - | - |
| 1778054685 | 18.33° C | 93% | 1015 hPa | 0 mm | - | - | - |
| 1778053905 | 18.89° C | 93% | 1014 hPa | 0 mm | - | - | - |
* Rain latest hour (hover to see other rain measurements)
** Current wind speed in m/s (hover to see current wind gust speed)